Погода в Пальме

Испания     39°34′16″N   2°39′26″E
темп.,
°C
ветер,
м/с
пор.,
м/с
влажн.,
%
обл.,
%
осадки,
мм/ч
давл.,
гПа
погр.,
м
6 марта, сб
сб601:00+9св22825 0.0 102040
04:00+8св237657 0.0 102043
07:00+8св346875 0.0 102171
10:00+13всв3563100 0.0 1022475
13:00+17в455199 0.0 1023955
16:00+17в445421 0.0 10221175
19:00+11св698140 0.0 1021311
22:00+10св469021 0.0 1023127
7 марта, вс
вс701:00+10св348560 0.0 102279
04:00+10св448698 0.0 102080
07:00+10св458699 0.0 1020136
10:00+12всв5883100 0.1 1020473
13:00+13св4676100 0.3 1019491
16:00+12св3574100 0.3 1017425
19:00+11св5884100 1.4 1017265
22:00+9св469296 0.0 1017156
8 марта, пн
пн801:00+9св349393 0.0 1016106
04:00+10ссв479190 0.0 1015269
07:00+9ссв228895 0.0 101562
10:00+13св4771100 0.0 1015797
13:00+15св676699 0.1 10161036
16:00+12св71077100 0.6 1015657
19:00+11св5983100 0.6 1015315
22:00+9ссв348897 0.0 1017118
9 марта, вт
вт901:00+9с338498 0.0 101756
04:00+9с338495 0.0 101764
07:00+9ссз338892 0.0 101759
10:00+13св457088 0.1 1019815
13:00+15всв665374 0.3 10201255
16:00+13ссв226487 0.1 1019577
19:00+10в127667 0.1 1020114
22:00+8св128416 0.0 102255
10 марта, ср
ср1001:00+7с11838 0.0 102243
04:00+7ссв11850 0.0 102238
07:00+7с11860 0.0 102363
10:00+13з24680 0.0 1025629
13:00+15юз55637 0.1 1026951
16:00+14юз566737 0.1 1025826
19:00+11юз458644 0.1 1025197
22:00+11з34900 0.1 1026160